Location: México DF
(19.4326°N, 99.1332°W)
Time: 02:43:13
(UTC+00:00)

ISS - Pass Details

Date: 10 May 2026
Orbit: 414 x 424 km, 51.6° (Epoch: 15 May)

Event Time Altitude Azimuth Distance (km) Brightness Sun altitude
Exits shadow 10:02:04 16° 10° (N) 1,164 -1.1 -26.7°
Maximum altitude 10:03:37 22° 47° (NE) 963 -1.2 -26.4°
Drops below altitude 10° 10:06:18 10° 101° (E) 1,493 -0.4 -25.8°
Sets 10:08:42 0° 117° (ESE) 2,357 0.5 -25.3°
